KIRCHDORF Weather Reports


time (UTC)temp
C
wind
direction
speed
KPH
gust
KPH
rain 1hr
cm
rain 24hr
cm
rain mn
cm
humidity
%
barometer
mb
20260507143212 13 340 20.9 0.0 0.00 0.00 0.08 76 1015.4
20260507140210 15 347 20.9 0.0 0.00 0.00 0.08 75 1015.3
20260507133210 13 344 24.1 0.0 0.00 0.00 0.08 77 1015.2
20260507130210 13 306 19.3 0.0 0.00 0.00 0.08 80 1015.1
20260507123210 11 5 12.9 0.0 0.00 0.00 0.08 89 1015.1
20260507120211 10 355 12.9 0.0 0.00 0.00 0.08 92 1015.1
20260507113210 10 341 17.7 0.0 0.00 0.00 0.05 89 1015.3
20260507110210 11 322 24.1 0.0 0.00 0.00 0.03 83 1015.4
20260507103216 11 273 12.9 0.0 0.00 0.00 0.03 82 1015.1
20260507100212 11 214 16.1 0.0 0.00 0.00 0.03 84 1015.1
20260507093211 11 297 17.7 0.0 0.00 0.00 0.03 82 1015.0
20260507090211 11 224 16.1 0.0 0.00 0.00 0.03 86 1014.8
20260507083212 10 242 22.5 0.0 0.00 0.00 0.03 88 1014.6
20260507080211 10 269 12.9 0.0 0.00 0.00 0.00 90 1014.5
20260507073212 9 196 12.9 0.0 0.00 0.00 0.00 90 1014.3
20260507070212 9 272 22.5 0.0 0.00 0.00 0.00 87 1014.0
20260507063211 9 232 27.4 0.0 0.00 0.00 0.00 87 1013.7
20260507060211 9 241 20.9 0.0 0.00 0.00 0.00 88 1013.4
20260507053211 8 265 22.5 0.0 0.00 0.00 0.00 89 1013.2
20260507050213 8 205 19.3 0.0 0.00 0.00 0.00 89 1012.8
20260507043211 8 265 22.5 0.0 0.00 0.00 0.00 90 1012.5
20260507040216 8 271 16.1 0.0 0.00 0.00 0.00 89 1012.1
20260507033211 8 174 11.3 0.0 0.00 0.00 0.00 88 1012.0
20260507030211 8 256 12.9 0.0 0.00 0.00 0.00 87 1011.9
20260507023211 8 224 11.3 0.0 0.00 0.00 0.00 88 1011.6
20260507020211 7 262 17.7 0.0 0.00 0.00 0.00 92 1011.7
20260507013212 7 144 16.1 0.0 0.00 0.00 0.00 93 1011.4
20260507010211 7 187 9.7 0.0 0.00 0.00 0.00 93 1011.5
20260507003209 7 176 8.0 0.0 0.00 0.00 0.00 92 1011.5
20260507000209 7 244 6.4 0.0 0.00 0.00 0.00 91 1011.6
20260506233209 8 236 14.5 0.0 0.00 0.00 0.00 91 1011.4
20260506230209 8 242 12.9 0.0 0.00 0.00 0.00 91 1011.2
20260506223209 8 200 11.3 0.0 0.00 0.00 0.00 91 1011.3
20260506213209 8 221 9.7 0.0 0.00 0.00 0.61 91 1011.1
20260506210210 8 208 9.7 0.0 0.00 0.00 0.61 90 1010.9
20260506203210 9 262 16.1 0.0 0.00 0.00 0.61 90 1010.7
20260506200210 9 257 11.3 0.0 0.00 0.00 0.61 91 1010.6
20260506193215 9 255 11.3 0.0 0.00 0.00 0.61 90 1010.5
20260506190211 9 188 12.9 0.0 0.00 0.00 0.61 89 1009.9
20260506183209 10 229 19.3 0.0 0.00 0.00 0.61 87 1009.7
20260506180216 10 248 24.1 0.0 0.00 0.00 0.61 88 1009.2
20260506173210 10 251 22.5 0.0 0.00 0.00 0.61 88 1008.9
20260506170215 10 248 22.5 0.0 0.00 0.00 0.61 87 1008.2
20260506163210 10 269 25.7 0.0 0.00 0.00 0.61 89 1008.6
20260506160210 10 227 32.2 0.0 0.00 0.00 0.61 90 1008.4
20260506153210 11 284 32.2 0.0 0.00 0.00 0.61 90 1007.8
20260506150210 15 223 37.0 0.0 0.00 0.00 0.05 76 1006.4